TimeCDT,TemperatureF,Dew PointF,Humidity,Sea Level PressureIn,VisibilityMPH,Wind Direction,Wind SpeedMPH,Gust SpeedMPH,PrecipitationIn,Events,Conditions,WindDirDegrees,DateUTC
12:53 AM,71.1,64.0,78,30.09,10.0,Calm,Calm,-,N/A,,Clear,0,2013-04-17 05:53:00
1:53 AM,69.1,63.0,81,30.09,10.0,Calm,Calm,-,N/A,,Clear,0,2013-04-17 06:53:00
2:53 AM,64.9,61.0,87,30.08,10.0,Calm,Calm,-,N/A,,Mostly Cloudy,0,2013-04-17 07:53:00
3:53 AM,66.0,63.0,90,30.08,9.0,Calm,Calm,-,N/A,,Mostly Cloudy,0,2013-04-17 08:53:00
4:53 AM,66.9,63.0,87,30.10,9.0,Calm,Calm,-,N/A,,Overcast,0,2013-04-17 09:53:00
5:53 AM,66.0,63.0,90,30.11,8.0,Calm,Calm,-,N/A,,Mostly Cloudy,0,2013-04-17 10:53:00
6:53 AM,69.1,64.0,84,30.12,9.0,Calm,Calm,-,N/A,,Partly Cloudy,0,2013-04-17 11:53:00
7:53 AM,73.0,66.0,79,30.12,10.0,South,6.9,-,N/A,,Partly Cloudy,190,2013-04-17 12:53:00
9:53 AM,80.1,68.0,67,30.11,10.0,SSW,6.9,-,N/A,,Clear,200,2013-04-17 14:53:00
10:53 AM,82.9,68.0,60,30.10,10.0,South,9.2,-,N/A,,Scattered Clouds,190,2013-04-17 15:53:00
11:53 AM,82.9,66.9,58,30.09,10.0,South,9.2,-,N/A,,Partly Cloudy,180,2013-04-17 16:53:00
12:22 PM,82.4,66.2,58,30.09,10.0,SSW,11.5,-,N/A,Thunderstorm,Thunderstorm,210,2013-04-17 17:22:00
12:53 PM,81.0,69.1,67,30.06,10.0,Calm,Calm,-,0.00,,Mostly Cloudy,0,2013-04-17 17:53:00
1:53 PM,87.1,64.9,48,30.03,10.0,SSW,11.5,20.7,N/A,,Clear,210,2013-04-17 18:53:00
2:53 PM,80.1,64.0,58,30.03,10.0,East,16.1,23.0,N/A,,Scattered Clouds,100,2013-04-17 19:53:00
3:05 PM,77.0,62.6,61,30.04,10.0,ESE,16.1,23.0,N/A,,Mostly Cloudy,120,2013-04-17 20:05:00
3:53 PM,77.0,63.0,62,30.02,10.0,ESE,12.7,-,N/A,,Scattered Clouds,120,2013-04-17 20:53:00
4:53 PM,79.0,62.1,56,30.00,10.0,SE,15.0,28.8,N/A,,Partly Cloudy,140,2013-04-17 21:53:00
5:53 PM,78.1,60.1,54,29.99,10.0,SE,12.7,20.7,N/A,,Clear,140,2013-04-17 22:53:00
6:53 PM,75.9,59.0,56,29.97,10.0,SSE,9.2,-,N/A,,Clear,150,2013-04-17 23:53:00
7:53 PM,75.0,60.1,60,29.96,10.0,SSE,9.2,-,N/A,,Clear,160,2013-04-18 00:53:00
8:53 PM,73.9,59.0,59,29.97,10.0,South,9.2,-,N/A,,Clear,180,2013-04-18 01:53:00
9:53 PM,73.0,59.0,61,29.96,10.0,South,9.2,-,N/A,,Clear,170,2013-04-18 02:53:00
10:53 PM,72.0,59.0,64,29.94,10.0,South,9.2,-,N/A,,Clear,180,2013-04-18 03:53:00
11:53 PM,72.0,60.1,66,29.93,10.0,South,11.5,-,N/A,,Clear,180,2013-04-18 04:53:00